VXP9578 MYGF-KLAL

Flight info

Callsign VXP9578
Flight time 0h 42m
Altitude 30000
Route DCT ZFP BR68V MUNRO DCT JAYMC DCT CROWD DCT
Aircraft B738/M-SDE2E3FGHIRWXY/LB1

Departure

Time 2026-04-20 20:50
Airport Grand Bahama International Airport (MYGF)

Arrival

Time 2026-04-20 21:32
Airport Lakeland Linder International Airport (KLAL)
Time Latitude Longitude Altitude Speed Heading
2026-04-20 20:40 26.54821 -78.70228 14 ft 0 kts 206°
2026-04-20 20:47 26.54820 -78.70229 14 ft 0 kts 212°
2026-04-20 20:48 26.54820 -78.70231 14 ft 0 kts 252°
2026-04-20 20:48 26.54821 -78.70237 14 ft 1 kts 279°
2026-04-20 20:48 26.54828 -78.70268 14 ft 5 kts 290°
2026-04-20 20:48 26.54939 -78.70370 14 ft 36 kts 302°
2026-04-20 20:49 26.54974 -78.70665 14 ft 38 kts 271°
2026-04-20 20:49 26.54984 -78.70948 14 ft 35 kts 272°
2026-04-20 20:49 26.55124 -78.71002 14 ft 19 kts 358°
2026-04-20 20:49 26.55203 -78.70898 14 ft 29 kts 63°
2026-04-20 20:50 26.55457 -78.70385 14 ft 119 kts 60°
2026-04-20 20:50 26.55955 -78.69390 359 ft 163 kts 61°
2026-04-20 20:50 26.56417 -78.68314 1610 ft 148 kts 62°
2026-04-20 20:50 26.56743 -78.67296 2348 ft 151 kts 81°
2026-04-20 20:51 26.56453 -78.66084 2814 ft 175 kts 116°
2026-04-20 20:51 26.55804 -78.65187 3272 ft 189 kts 133°
2026-04-20 20:51 26.54695 -78.64407 3756 ft 208 kts 156°
2026-04-20 20:51 26.53202 -78.64195 4266 ft 227 kts 188°
2026-04-20 20:52 26.51735 -78.64989 4761 ft 245 kts 226°
2026-04-20 20:52 26.50879 -78.66627 5385 ft 254 kts 258°
2026-04-20 20:52 26.50768 -78.68430 5976 ft 263 kts 278°
2026-04-20 20:52 26.51145 -78.70594 6761 ft 272 kts 285°
2026-04-20 20:53 26.51600 -78.72656 7685 ft 275 kts 284°
2026-04-20 20:53 26.52020 -78.74692 8598 ft 276 kts 283°
2026-04-20 20:53 26.52420 -78.76782 9497 ft 278 kts 282°
2026-04-20 20:53 26.52810 -78.78893 10338 ft 282 kts 282°
2026-04-20 20:54 26.53212 -78.81092 10915 ft 295 kts 282°
2026-04-20 20:54 26.53636 -78.83388 11432 ft 310 kts 282°
2026-04-20 20:54 26.54081 -78.85786 11927 ft 325 kts 282°
2026-04-20 20:54 26.54551 -78.88339 12400 ft 339 kts 282°
2026-04-20 20:55 26.55034 -78.90962 12861 ft 354 kts 282°
2026-04-20 20:55 26.55535 -78.93677 13435 ft 363 kts 282°
2026-04-20 20:55 26.56047 -78.96457 14218 ft 366 kts 282°
2026-04-20 20:55 26.56553 -78.99209 15038 ft 366 kts 281°
2026-04-20 20:56 26.57055 -79.01949 15826 ft 367 kts 281°
2026-04-20 20:56 26.57563 -79.04723 16545 ft 370 kts 281°
2026-04-20 20:56 26.58074 -79.07516 17232 ft 372 kts 281°
2026-04-20 20:56 26.58585 -79.10308 17897 ft 375 kts 281°
2026-04-20 20:57 26.59112 -79.13194 18565 ft 377 kts 281°
2026-04-20 20:57 26.59629 -79.16026 19206 ft 380 kts 281°
2026-04-20 20:57 26.60159 -79.18930 19811 ft 383 kts 281°
2026-04-20 20:57 26.60694 -79.21864 20419 ft 386 kts 281°
2026-04-20 20:58 26.61223 -79.24766 20984 ft 389 kts 281°
2026-04-20 20:58 26.61769 -79.27769 21561 ft 392 kts 281°
2026-04-20 20:58 26.62306 -79.30722 22136 ft 394 kts 281°
2026-04-20 20:58 26.62852 -79.33738 22679 ft 397 kts 281°
2026-04-20 20:59 26.63396 -79.36746 23236 ft 399 kts 281°
2026-04-20 20:59 26.63943 -79.39771 23850 ft 399 kts 281°
2026-04-20 20:59 26.64496 -79.42826 24363 ft 402 kts 281°
2026-04-20 20:59 26.65040 -79.45840 24927 ft 402 kts 281°
2026-04-20 21:00 26.65597 -79.48933 25413 ft 405 kts 281°
2026-04-20 21:00 26.66146 -79.51985 25963 ft 404 kts 281°
2026-04-20 21:00 26.66705 -79.55093 26074 ft 413 kts 281°
2026-04-20 21:00 26.67278 -79.58291 26094 ft 423 kts 281°
2026-04-20 21:01 26.67860 -79.61543 26093 ft 432 kts 281°
2026-04-20 21:01 26.68444 -79.64812 26093 ft 436 kts 281°
2026-04-20 21:01 26.69040 -79.68149 26096 ft 433 kts 280°
2026-04-20 21:01 26.69628 -79.71435 26097 ft 434 kts 280°
2026-04-20 21:02 26.70218 -79.74741 26098 ft 434 kts 280°
2026-04-20 21:02 26.70804 -79.78033 26100 ft 434 kts 280°
2026-04-20 21:02 26.71395 -79.81360 26108 ft 433 kts 280°
2026-04-20 21:02 26.71981 -79.84657 26111 ft 434 kts 281°
2026-04-20 21:03 26.72564 -79.87949 26116 ft 433 kts 280°
2026-04-20 21:03 26.73144 -79.91225 26121 ft 433 kts 280°
2026-04-20 21:03 26.73729 -79.94537 26126 ft 433 kts 280°
2026-04-20 21:03 26.74312 -79.97841 26124 ft 435 kts 280°
2026-04-20 21:04 26.74891 -80.01127 26127 ft 433 kts 280°
2026-04-20 21:04 26.75470 -80.04419 26126 ft 434 kts 280°
2026-04-20 21:04 26.76047 -80.07707 26131 ft 433 kts 280°
2026-04-20 21:04 26.76627 -80.11009 26126 ft 433 kts 280°
2026-04-20 21:05 26.77206 -80.14311 26122 ft 434 kts 280°
2026-04-20 21:05 26.77790 -80.17651 26123 ft 434 kts 280°
2026-04-20 21:05 26.78361 -80.20916 26124 ft 433 kts 280°
2026-04-20 21:05 26.78936 -80.24213 26124 ft 435 kts 280°
2026-04-20 21:06 26.79510 -80.27507 26125 ft 432 kts 281°
2026-04-20 21:06 26.80084 -80.30809 26120 ft 434 kts 280°
2026-04-20 21:06 26.80663 -80.34142 26116 ft 435 kts 280°
2026-04-20 21:06 26.81227 -80.37393 26118 ft 434 kts 281°
2026-04-20 21:07 26.81802 -80.40717 26112 ft 434 kts 280°
2026-04-20 21:07 26.82382 -80.44072 26109 ft 436 kts 280°
2026-04-20 21:07 26.82950 -80.47364 26107 ft 434 kts 281°
2026-04-20 21:07 26.83518 -80.50655 26107 ft 434 kts 280°
2026-04-20 21:08 26.84096 -80.54010 26110 ft 433 kts 280°
2026-04-20 21:08 26.84661 -80.57298 26108 ft 434 kts 280°
2026-04-20 21:08 26.85228 -80.60603 26106 ft 434 kts 280°
2026-04-20 21:08 26.85792 -80.63895 26107 ft 433 kts 280°
2026-04-20 21:09 26.86361 -80.67220 26102 ft 433 kts 280°
2026-04-20 21:09 26.86929 -80.70545 26097 ft 435 kts 280°
2026-04-20 21:09 26.87480 -80.73778 26107 ft 433 kts 280°
2026-04-20 21:09 26.88040 -80.77066 26102 ft 433 kts 280°
2026-04-20 21:10 26.88603 -80.80373 26097 ft 435 kts 280°
2026-04-20 21:10 26.89165 -80.83676 26102 ft 434 kts 280°
2026-04-20 21:10 26.89727 -80.86991 26102 ft 434 kts 280°
2026-04-20 21:10 26.90284 -80.90282 26108 ft 434 kts 280°
2026-04-20 21:11 26.90848 -80.93613 26106 ft 434 kts 280°
2026-04-20 21:11 26.91407 -80.96918 26107 ft 434 kts 280°
2026-04-20 21:11 26.91971 -81.00255 26105 ft 436 kts 280°
2026-04-20 21:11 26.92530 -81.03572 26105 ft 435 kts 280°
2026-04-20 21:12 26.93086 -81.06874 26110 ft 435 kts 280°
2026-04-20 21:12 26.93648 -81.10220 26111 ft 436 kts 280°
2026-04-20 21:12 26.94203 -81.13525 26106 ft 436 kts 280°
2026-04-20 21:12 26.94758 -81.16839 26114 ft 434 kts 280°
2026-04-20 21:13 26.95311 -81.20147 26116 ft 435 kts 280°
2026-04-20 21:13 26.95871 -81.23501 26108 ft 434 kts 280°
2026-04-20 21:13 26.96425 -81.26823 26114 ft 434 kts 280°
2026-04-20 21:13 26.96972 -81.30088 26113 ft 418 kts 280°
2026-04-20 21:14 26.97637 -81.33166 26113 ft 399 kts 286°
2026-04-20 21:14 26.98695 -81.35976 26108 ft 392 kts 297°
2026-04-20 21:14 27.00315 -81.38471 25884 ft 403 kts 308°
2026-04-20 21:14 27.02366 -81.40623 25499 ft 401 kts 315°
2026-04-20 21:15 27.04528 -81.42561 25099 ft 394 kts 317°
2026-04-20 21:15 27.06708 -81.44418 24569 ft 394 kts 319°
2026-04-20 21:15 27.08894 -81.46256 23982 ft 399 kts 319°
2026-04-20 21:15 27.11113 -81.48121 23372 ft 396 kts 319°
2026-04-20 21:16 27.13313 -81.49976 22764 ft 393 kts 319°
2026-04-20 21:16 27.15466 -81.51801 22176 ft 390 kts 319°
2026-04-20 21:16 27.17633 -81.53647 21574 ft 387 kts 319°
2026-04-20 21:16 27.19761 -81.55467 20965 ft 385 kts 319°
2026-04-20 21:17 27.21859 -81.57267 20368 ft 382 kts 319°
2026-04-20 21:17 27.23976 -81.59087 19760 ft 380 kts 319°
2026-04-20 21:17 27.26061 -81.60882 19162 ft 378 kts 319°
2026-04-20 21:17 27.28128 -81.62663 18563 ft 375 kts 320°
2026-04-20 21:18 27.30177 -81.64432 17959 ft 373 kts 320°
2026-04-20 21:18 27.32229 -81.66206 17358 ft 370 kts 319°
2026-04-20 21:18 27.34247 -81.67952 16766 ft 368 kts 320°
2026-04-20 21:18 27.36223 -81.69661 16177 ft 366 kts 320°
2026-04-20 21:19 27.38227 -81.71394 15588 ft 364 kts 321°
2026-04-20 21:19 27.40229 -81.73126 14997 ft 362 kts 321°
2026-04-20 21:19 27.42228 -81.74856 14398 ft 360 kts 321°
2026-04-20 21:20 27.46178 -81.78275 13213 ft 356 kts 322°
2026-04-20 21:20 27.48131 -81.79967 12628 ft 354 kts 322°
2026-04-20 21:20 27.50069 -81.81647 12039 ft 353 kts 322°
2026-04-20 21:20 27.51978 -81.83301 11470 ft 351 kts 322°
2026-04-20 21:21 27.53931 -81.84995 10988 ft 346 kts 323°
2026-04-20 21:21 27.55799 -81.86616 10754 ft 334 kts 323°
2026-04-20 21:21 27.57604 -81.88184 10631 ft 319 kts 323°
2026-04-20 21:21 27.59333 -81.89687 10500 ft 307 kts 323°
2026-04-20 21:22 27.61005 -81.91142 10359 ft 295 kts 323°
2026-04-20 21:22 27.62615 -81.92542 10072 ft 290 kts 323°
2026-04-20 21:22 27.64215 -81.93934 9623 ft 291 kts 323°
2026-04-20 21:22 27.65801 -81.95312 9226 ft 290 kts 323°
2026-04-20 21:23 27.67405 -81.96703 8802 ft 290 kts 324°
2026-04-20 21:23 27.68997 -81.98067 8412 ft 288 kts 324°
2026-04-20 21:23 27.70590 -81.99422 8069 ft 285 kts 325°
2026-04-20 21:23 27.72179 -82.00773 7714 ft 282 kts 325°
2026-04-20 21:24 27.73744 -82.02109 7369 ft 280 kts 325°
2026-04-20 21:24 27.75278 -82.03418 7026 ft 277 kts 326°
2026-04-20 21:24 27.76823 -82.04738 6685 ft 275 kts 326°
2026-04-20 21:24 27.78342 -82.06037 6347 ft 273 kts 326°
2026-04-20 21:25 27.79836 -82.07316 6012 ft 271 kts 326°
2026-04-20 21:25 27.81350 -82.08611 5680 ft 268 kts 326°
2026-04-20 21:25 27.82828 -82.09876 5346 ft 266 kts 326°
2026-04-20 21:25 27.84283 -82.11122 5030 ft 263 kts 326°
2026-04-20 21:26 27.85750 -82.12378 4708 ft 261 kts 327°
2026-04-20 21:26 27.87191 -82.13612 4384 ft 260 kts 327°
2026-04-20 21:26 27.88631 -82.14844 4068 ft 258 kts 327°
2026-04-20 21:26 27.90031 -82.16046 3848 ft 251 kts 327°
2026-04-20 21:27 27.91400 -82.17224 3633 ft 244 kts 327°
2026-04-20 21:27 27.92736 -82.18373 3413 ft 238 kts 328°
2026-04-20 21:27 27.94071 -82.19447 3129 ft 233 kts 334°
2026-04-20 21:27 27.95548 -82.20050 2887 ft 218 kts
2026-04-20 21:28 27.96948 -82.19684 2703 ft 203 kts 32°
2026-04-20 21:28 27.98034 -82.18716 2532 ft 196 kts 46°
2026-04-20 21:28 27.98782 -82.17483 2318 ft 188 kts 67°
2026-04-20 21:28 27.98935 -82.16101 2175 ft 168 kts 88°
2026-04-20 21:29 27.98890 -82.14841 1990 ft 148 kts 85°
2026-04-20 21:29 27.98905 -82.13744 1936 ft 137 kts 83°
2026-04-20 21:29 27.98920 -82.12698 1859 ft 129 kts 84°
2026-04-20 21:29 27.98921 -82.11718 1799 ft 128 kts 84°
2026-04-20 21:30 27.98924 -82.10684 1679 ft 127 kts 84°
2026-04-20 21:30 27.98927 -82.09695 1563 ft 127 kts 84°
2026-04-20 21:30 27.98911 -82.08678 1371 ft 131 kts 89°
2026-04-20 21:30 27.98840 -82.07647 1144 ft 135 kts 90°
2026-04-20 21:31 27.98811 -82.06606 935 ft 134 kts 82°
2026-04-20 21:31 27.98890 -82.05528 678 ft 138 kts 81°
2026-04-20 21:31 27.98912 -82.04454 430 ft 139 kts 90°
2026-04-20 21:31 27.98917 -82.03421 189 ft 137 kts 89°
2026-04-20 21:32 27.98925 -82.02385 134 ft 119 kts 88°
2026-04-20 21:32 27.98931 -82.01664 137 ft 61 kts 90°
2026-04-20 21:32 27.98929 -82.01379 138 ft 31 kts 89°
2026-04-20 21:32 27.98932 -82.01145 139 ft 29 kts 90°
2026-04-20 21:33 27.98931 -82.00919 140 ft 28 kts 90°
2026-04-20 21:33 27.99004 -82.00766 141 ft 24 kts 355°
2026-04-20 21:33 27.99075 -82.00797 141 ft 9 kts 189°
2026-04-20 21:33 27.99047 -82.00852 141 ft 12 kts 258°
2026-04-20 21:34 27.99043 -82.01021 140 ft 25 kts 270°
2026-04-20 21:34 27.99041 -82.01319 139 ft 49 kts 271°
2026-04-20 21:34 27.99038 -82.01788 136 ft 70 kts 270°
2026-04-20 21:34 27.99035 -82.02413 133 ft 88 kts 270°
2026-04-20 21:35 27.99033 -82.03046 132 ft 55 kts 271°
2026-04-20 21:35 27.99040 -82.03284 134 ft 13 kts 309°
2026-04-20 21:35 27.99128 -82.03304 134 ft 12 kts 360°
2026-04-20 21:35 27.99201 -82.03304 134 ft 8 kts